Location: Lynch Observatory
(39.9540°N, 75.1861°W)
Time: 10:33:54
(UTC-04:00)

DOVE 4 - Pass Details

Date: 30 April 2024
Orbit: 581 x 778 km, 97.7° (Epoch: 26 May)

Event Time Altitude Azimuth Distance (km) Brightness Sun altitude
Rises 22:51:24 0° 9° (N) 2,972 ? -27.5°
Reaches altitude 10° 22:53:35 10° 7° (N) 2,087 ? -27.7°
Enters shadow 22:57:38 62° 323° (NW) 771 ? -28.2°
